Wind_Speed
50 50 48 44 40 37 39 41 40 40 39 35 33 33 33 32 31 30 32 32 31 32 32 31 31 31 32 31 31 32 33 34 34 34 33 32 30 29 28 28 27 27
51 53 51 47 43 40 41 41 40 42 41 36 33 34 33 32 31 30 31 31 31 32 32 31 31 31 32 32 32 32 33 34 34 35 35 34 33 31 30 29 28 28
48 51 52 50 47 44 43 42 42 43 41 38 36 36 34 33 32 32 32 31 31 31 32 32 31 31 32 32 33 33 34 34 34 34 35 35 34 33 32 30 30 29
45 48 52 52 49 46 44 44 45 45 43 41 40 37 35 35 34 33 33 32 32 31 31 32 32 32 32 32 33 34 33 33 32 33 34 34 35 34 33 32 31 30
48 50 52 51 48 46 45 46 47 46 44 43 42 40 38 36 35 34 33 33 33 32 31 31 32 33 34 34 34 35 33 31 31 32 33 34 35 34 33 32 30 30
50 51 51 51 50 49 48 47 48 48 46 44 43 42 40 38 36 35 34 34 34 33 32 31 32 33 34 34 35 35 34 31 30 31 32 34 34 34 33 32 31 30
49 47 44 43 44 46 47 48 48 48 46 44 44 44 42 40 38 35 34 35 35 34 32 31 32 32 33 34 35 36 34 32 31 31 32 33 34 35 34 32 31 31
46 45 43 39 36 35 36 40 43 44 44 43 43 44 44 42 39 36 35 36 36 35 34 32 32 32 31 31 34 36 35 33 32 32 33 33 34 35 34 33 32 31
42 41 41 42 40 35 32 32 35 38 40 41 42 43 45 44 42 39 37 37 37 37 35 33 32 32 30 29 32 35 35 34 33 32 33 34 34 34 34 33 33 32
42 39 39 41 43 42 39 38 39 40 40 41 42 43 45 46 45 42 39 39 39 38 37 35 34 34 33 31 30 32 34 33 33 33 33 33 34 34 33 33 33 33
41 39 38 38 38 39 39 40 44 44 42 41 42 43 45 46 47 45 42 41 40 40 39 38 36 37 37 35 32 31 33 32 32 32 33 33 33 33 33 33 34 33
39 39 38 37 36 36 35 36 41 44 42 41 41 43 45 47 48 47 45 43 42 41 41 40 40 40 39 38 36 34 34 33 32 32 32 33 33 32 33 33 34 33
36 36 37 37 36 35 33 32 36 41 42 42 41 40 44 47 48 48 46 45 43 43 43 42 42 42 41 40 39 38 37 37 35 34 33 33 34 33 32 33 34 34
32 33 34 36 36 35 31 29 32 37 41 42 41 39 42 45 47 47 47 45 45 44 43 43 42 43 43 42 41 40 40 40 39 38 36 35 35 35 33 33 33 34
30 32 35 36 36 35 33 29 30 35 38 39 39 38 40 43 45 47 47 46 45 45 44 44 43 43 44 43 43 41 41 41 40 41 40 38 36 37 36 35 34 34
27 31 36 38 37 35 35 32 30 33 36 38 38 38 39 40 42 45 45 45 45 45 45 45 45 45 45 45 45 44 43 43 42 42 43 42 38 36 37 37 35 35
22 25 31 36 37 34 32 31 31 33 35 38 39 38 38 38 38 40 42 43 43 44 45 46 47 48 48 48 48 47 46 46 45 44 44 43 40 36 36 37 35 35
21 23 27 33 34 31 28 28 31 33 35 37 38 38 37 36 35 35 35 36 38 41 43 46 48 49 50 49 49 46 44 46 46 45 44 44 42 39 36 35 35 34
22 24 26 30 30 27 26 28 30 33 35 36 37 36 35 33 31 29 28 29 30 32 36 40 43 46 47 48 46 42 40 44 46 45 44 44 43 40 36 35 35 34
21 23 24 26 25 25 27 29 30 32 34 35 35 34 32 31 29 29 31 31 29 28 28 31 35 40 42 43 42 41 41 43 44 43 43 42 42 40 37 37 37 35
14 18 20 21 22 22 25 27 28 29 30 31 31 31 30 29 29 29 31 30 30 30 29 28 29 33 37 39 39 40 41 42 41 41 41 40 40 40 39 39 39 37
11 13 14 17 20 22 24 26 26 26 26 27 28 28 28 27 27 27 28 27 28 30 31 28 24 25 30 34 35 37 39 40 39 40 40 40 39 39 39 39 40 39
12 13 13 14 16 20 23 26 26 26 25 26 27 27 26 26 26 27 27 26 27 29 30 29 25 21 23 28 30 32 35 36 36 37 39 39 39 39 39 40 40 41
14 15 15 15 15 17 19 21 23 25 25 26 27 26 25 24 24 25 24 24 25 27 28 30 29 24 23 26 29 31 33 34 34 35 36 37 38 38 38 39 41 42
17 16 17 17 18 18 17 16 17 19 21 22 24 25 25 23 21 21 22 23 25 27 29 32 32 28 25 27 29 32 35 36 36 36 36 36 35 36 36 37 39 41
21 21 20 19 20 21 20 18 17 16 17 19 21 22 22 20 19 19 20 22 24 27 28 31 33 31 29 29 31 33 35 37 37 37 37 37 35 34 33 34 36 39
Wind_Direction
228 227 229 234 236 240 241 237 234 233 230 231 234 233 230 229 228 229 231 233 233 234 236 238 241 243 244 244 243 243 242 243 243 242 241 241 242 243 246 250 254 259
228 227 229 231 232 235 239 240 240 238 235 235 237 238 236 233 231 232 234 235 236 237 237 238 241 242 242 242 242 242 242 243 243 243 243 244 244 246 248 250 254 259
227 228 229 229 231 233 234 237 238 239 240 240 241 241 240 238 235 234 236 237 238 239 240 239 239 240 241 242 242 242 242 243 244 245 245 246 247 249 251 253 257 259
224 225 228 229 232 233 234 237 238 238 239 240 241 241 241 241 239 237 238 239 239 240 240 241 240 239 240 241 242 241 241 242 244 246 247 248 248 250 251 253 256 257
230 230 234 236 235 234 236 239 240 240 239 239 241 242 242 242 241 239 240 240 241 240 240 241 241 240 240 241 241 241 240 242 243 246 247 247 248 248 248 250 251 253
232 234 238 241 239 237 237 239 241 241 240 240 243 244 244 244 243 242 241 241 242 242 241 241 240 240 239 240 241 241 240 241 243 244 246 246 247 247 246 247 248 250
228 228 230 233 235 235 236 238 239 240 241 242 244 247 247 247 246 245 243 243 243 243 243 242 241 240 240 240 242 242 241 241 242 243 244 244 245 246 245 245 246 247
226 227 228 229 231 232 233 234 236 239 242 243 246 249 250 250 250 249 248 247 246 245 244 244 242 240 241 244 245 243 242 242 242 241 241 242 243 244 244 244 245 246
231 232 235 238 241 242 242 241 240 241 243 245 248 251 252 254 254 252 252 251 250 249 247 246 244 241 240 245 249 248 245 242 242 242 242 242 242 244 244 245 246 247
237 239 239 240 242 245 249 252 251 248 247 247 249 251 253 255 256 255 254 254 253 252 248 245 243 241 239 241 247 252 250 246 244 243 243 243 243 244 246 247 248 248
236 236 235 234 237 241 246 250 251 250 251 250 249 250 253 255 256 256 255 255 254 252 250 246 243 242 241 240 242 248 253 252 250 249 247 246 246 246 247 249 250 250
238 236 234 234 233 235 241 247 249 249 251 252 251 249 251 253 255 256 257 257 255 253 251 250 248 247 245 243 243 245 249 253 255 257 256 254 252 251 250 250 252 253
241 240 238 237 236 237 240 242 245 248 250 253 254 251 250 251 252 254 256 258 258 256 254 253 252 252 250 248 247 247 249 251 253 258 262 263 260 256 255 254 255 256
241 241 241 239 239 242 241 236 240 246 249 252 255 255 251 250 251 253 255 257 259 258 258 257 256 256 254 252 250 250 252 252 252 254 258 264 267 265 261 259 258 259
240 242 242 239 237 240 241 237 238 245 249 251 253 254 251 249 251 253 254 256 258 259 259 259 259 259 259 257 254 253 254 255 255 255 255 258 263 268 268 265 263 263
241 242 242 240 238 238 239 238 239 245 249 248 249 252 252 250 250 252 254 256 258 260 261 260 259 258 259 260 260 259 259 258 258 258 257 256 257 264 269 269 268 268
244 242 243 241 237 234 234 238 242 246 247 246 248 253 254 252 251 252 254 257 260 262 263 263 262 260 260 260 262 263 262 259 259 260 259 257 256 260 267 270 271 272
245 243 243 242 238 234 234 239 244 245 245 246 249 253 254 253 252 252 254 257 260 263 265 265 265 265 264 264 265 266 263 258 258 260 260 259 258 260 267 272 272 274
241 242 242 242 242 240 238 244 250 248 248 250 252 253 254 252 252 254 258 262 263 263 267 268 268 269 269 269 270 269 264 259 259 259 260 261 261 262 269 274 275 275
236 239 240 243 245 240 236 244 252 253 253 255 256 255 252 248 250 255 261 264 263 264 270 273 274 275 273 272 273 272 265 261 260 260 261 263 263 266 272 276 275 275
238 238 238 240 244 240 235 240 246 248 252 255 257 256 252 250 255 259 261 262 261 261 265 269 277 281 278 273 273 272 268 264 263 263 263 264 266 271 274 276 276 276
247 243 240 238 239 237 236 238 239 241 245 249 251 250 248 250 255 259 262 264 267 267 264 264 275 284 277 269 268 269 267 265 264 265 265 266 269 272 275 277 278 277
252 250 246 241 237 235 235 236 237 238 240 243 244 243 243 247 254 259 263 267 270 270 268 268 275 279 268 259 258 261 261 262 264 266 267 270 272 275 277 279 280 280
254 252 250 246 242 237 235 235 237 238 239 241 243 244 246 250 255 258 260 262 264 266 266 268 272 273 267 259 256 257 259 261 263 265 266 270 273 275 278 280 282 282
253 251 248 247 245 242 237 233 231 233 237 239 241 242 243 245 249 253 255 255 256 258 260 262 264 266 268 266 262 261 261 262 262 263 264 266 269 273 276 278 280 281
253 251 247 244 244 245 244 239 231 227 230 233 233 232 231 233 240 250 253 252 252 253 257 260 261 260 262 265 265 264 263 262 262 262 263 265 267 270 273 275 278 280
Height
1463 1466 1468 1470 1472 1473 1475 1476 1479 1481 1483 1485 1487 1488 1490 1492 1495 1497 1499 1501 1504 1506 1508 1509 1511 1513 1515 1517 1519 1521 1523 1525 1527 1529 1531 1533 1534 1536 1537 1538 1540 1541
1459 1462 1465 1467 1469 1471 1472 1473 1475 1476 1479 1481 1484 1486 1488 1490 1492 1494 1496 1498 1501 1503 1505 1507 1508 1510 1512 1514 1516 1518 1519 1521 1523 1526 1527 1529 1531 1532 1533 1535 1537 1538
1455 1458 1461 1462 1464 1468 1470 1471 1473 1474 1476 1479 1481 1484 1486 1488 1490 1492 1494 1496 1498 1500 1502 1504 1505 1507 1509 1511 1513 1514 1516 1518 1520 1522 1524 1525 1527 1528 1529 1531 1533 1535
1451 1453 1456 1458 1460 1464 1468 1469 1470 1472 1474 1477 1479 1481 1483 1485 1487 1489 1491 1493 1495 1497 1499 1501 1503 1504 1506 1508 1509 1511 1512 1514 1516 1518 1520 1522 1523 1524 1526 1527 1529 1531
1449 1451 1453 1455 1457 1461 1464 1466 1468 1470 1473 1475 1477 1479 1481 1483 1485 1487 1488 1490 1492 1494 1496 1498 1500 1501 1503 1504 1506 1508 1509 1511 1512 1514 1516 1517 1519 1521 1522 1524 1525 1526
1447 1450 1452 1453 1454 1457 1459 1461 1464 1468 1471 1474 1476 1477 1479 1481 1483 1484 1486 1487 1489 1491 1493 1494 1496 1498 1500 1501 1503 1504 1505 1507 1509 1510 1512 1514 1516 1517 1519 1520 1521 1523
1443 1445 1448 1452 1454 1456 1457 1458 1461 1465 1469 1472 1474 1475 1477 1479 1481 1482 1484 1485 1487 1489 1490 1492 1494 1495 1497 1498 1499 1500 1502 1503 1505 1507 1508 1510 1512 1514 1515 1516 1518 1519
1438 1441 1445 1449 1453 1455 1457 1458 1460 1463 1467 1470 1473 1474 1475 1477 1479 1481 1482 1483 1485 1487 1488 1490 1491 1492 1494 1496 1496 1497 1498 1500 1501 1503 1504 1507 1508 1510 1511 1513 1514 1516
1436 1440 1444 1448 1452 1455 1458 1460 1461 1463 1466 1468 1471 1473 1474 1475 1476 1478 1480 1481 1482 1484 1486 1487 1488 1489 1491 1493 1494 1495 1495 1496 1498 1499 1501 1503 1504 1506 1508 1509 1510 1512
1434 1438 1442 1446 1449 1452 1455 1458 1459 1461 1462 1465 1468 1470 1472 1472 1473 1475 1477 1478 1479 1481 1482 1484 1485 1486 1487 1488 1491 1492 1493 1494 1495 1496 1498 1499 1501 1503 1505 1506 1507 1508
1430 1433 1437 1440 1443 1446 1448 1451 1452 1454 1456 1459 1462 1466 1468 1470 1470 1472 1474 1475 1476 1477 1479 1480 1482 1483 1484 1485 1486 1488 1490 1492 1493 1494 1495 1496 1497 1499 1501 1502 1503 1505
1425 1428 1431 1435 1438 1440 1442 1444 1446 1448 1451 1453 1457 1460 1464 1466 1467 1468 1470 1472 1473 1474 1475 1477 1478 1480 1481 1482 1484 1485 1487 1489 1490 1491 1492 1493 1494 1495 1497 1498 1499 1501
1420 1423 1426 1430 1433 1434 1436 1439 1442 1445 1447 1449 1453 1456 1459 1461 1463 1465 1466 1468 1470 1471 1472 1473 1475 1476 1478 1479 1481 1482 1483 1485 1487 1488 1490 1491 1491 1492 1493 1495 1496 1497
1415 1419 1422 1426 1429 1430 1432 1434 1438 1442 1444 1447 1449 1452 1454 1456 1459 1461 1463 1464 1466 1467 1469 1471 1472 1473 1474 1476 1477 1479 1480 1481 1483 1485 1487 1488 1488 1489 1490 1491 1492 1493
1413 1415 1419 1422 1424 1426 1428 1430 1434 1438 1441 1444 1446 1448 1450 1453 1455 1457 1459 1460 1462 1464 1466 1468 1469 1470 1471 1472 1473 1475 1477 1478 1479 1481 1483 1485 1485 1485 1487 1488 1488 1489
1410 1413 1416 1419 1420 1422 1425 1427 1429 1433 1437 1440 1442 1444 1447 1450 1452 1454 1455 1457 1459 1461 1463 1464 1465 1466 1467 1468 1470 1472 1474 1475 1476 1477 1479 1481 1482 1482 1483 1484 1485 1486
1409 1411 1413 1416 1417 1418 1420 1423 1425 1429 1432 1436 1439 1441 1443 1446 1448 1450 1452 1454 1455 1457 1459 1460 1462 1463 1465 1467 1468 1470 1471 1472 1473 1473 1474 1477 1479 1479 1479 1481 1482 1482
1407 1409 1411 1413 1414 1414 1415 1418 1422 1425 1429 1432 1434 1436 1438 1441 1443 1445 1447 1450 1452 1454 1455 1457 1458 1460 1462 1464 1467 1469 1470 1469 1470 1471 1471 1472 1475 1475 1475 1477 1479 1479
1405 1407 1409 1410 1411 1410 1411 1414 1418 1422 1424 1427 1429 1431 1434 1436 1437 1439 1442 1444 1447 1449 1451 1453 1455 1457 1459 1462 1464 1466 1468 1467 1467 1468 1468 1469 1471 1472 1471 1472 1474 1476
1403 1404 1406 1407 1408 1408 1409 1412 1415 1418 1420 1422 1424 1426 1429 1431 1432 1434 1436 1438 1440 1443 1445 1446 1449 1452 1455 1459 1462 1464 1465 1466 1466 1466 1466 1466 1467 1468 1467 1467 1469 1472
1400 1401 1402 1404 1405 1405 1406 1409 1412 1413 1415 1417 1419 1422 1424 1426 1427 1429 1431 1433 1435 1437 1438 1439 1441 1444 1448 1453 1458 1461 1462 1463 1463 1462 1462 1462 1463 1463 1463 1463 1464 1467
1399 1400 1400 1401 1402 1402 1403 1406 1408 1409 1411 1413 1415 1417 1419 1421 1423 1425 1427 1429 1431 1433 1434 1434 1434 1436 1439 1445 1452 1457 1458 1458 1458 1457 1457 1457 1458 1459 1459 1459 1460 1462
1397 1398 1399 1399 1399 1400 1400 1402 1403 1405 1407 1410 1411 1413 1415 1417 1419 1421 1423 1424 1427 1430 1431 1432 1431 1430 1432 1437 1444 1449 1451 1451 1451 1451 1451 1452 1453 1454 1455 1455 1456 1458
1395 1396 1396 1397 1397 1397 1398 1399 1400 1402 1404 1406 1408 1410 1412 1414 1416 1417 1418 1419 1420 1423 1427 1429 1428 1428 1429 1433 1437 1440 1443 1444 1444 1445 1446 1447 1448 1449 1450 1451 1452 1454
1392 1393 1393 1394 1395 1395 1396 1396 1397 1399 1401 1403 1405 1407 1409 1411 1412 1413 1414 1415 1416 1418 1421 1424 1425 1426 1427 1429 1432 1435 1437 1439 1440 1440 1441 1442 1443 1444 1445 1447 1448 1449
1388 1389 1390 1391 1392 1393 1394 1394 1395 1396 1398 1400 1401 1403 1405 1407 1408 1409 1410 1412 1413 1414 1416 1418 1421 1423 1424 1426 1428 1430 1432 1433 1435 1436 1437 1438 1438 1437 1438 1440 1442 1443